Change the Weather History Date:

Tuesday, September 4, 2012

  Actual Average Record
Temperature  
Mean Temperature 84 °F 70 °F  
Max Temperature 103 °F 82 °F 103 °F (1945)
Min Temperature 64 °F 58 °F 38 °F (1902)
Degree Days  
Heating Degree Days 0 1  
Month to date heating degree days 0 4  
Since 1 July heating degree days 4 14  
Cooling Degree Days 19 6  
Month to date cooling degree days 62 25  
Year to date cooling degree days 1446 939  
Growing Degree Days 33 (Base 50)    
Moisture  
Dew Point 58 °F    
Average Humidity 54    
Maximum Humidity 93    
Minimum Humidity 15    
Precipitation  
Precipitation 0.00 in 0.08 in 1.29 in (1985)
Month to date precipitation 0.01 0.33  
Year to date precipitation 8.12 21.10  
Snow  
Snow 0.00 in 0.00 in - ()
Month to date snowfall 0.0 0.0  
Since 1 July snowfall 0.0 0.0  
Since 1 September snowfall 0.0 0.0  
Snow Depth 0.00 in    
Sea Level Pressure  
Sea Level Pressure 29.80 in    
Wind  
Wind Speed 10 mph (SSW)    
Max Wind Speed 29 mph    
Max Gust Speed 35 mph    
Visibility 10 miles    
Events      
T = Trace of Precipitation, MM = Missing Value Source: NWS Daily Summary

Daily Weather History Graph

Daily Weather History Graph

Search for Another Location

Airport or City:

Trip Planner

Search our weather history database for the weather conditions in past years. The results will help you decide how hot, cold, wet, or windy it might be!

Date:

Astronomy

Sep. 04, 2012 Rise Set
Actual Time 7:03 AM CDT 7:59 PM CDT
Civil Twilight 6:35 AM CDT 8:27 PM CDT
Nautical Twilight 6:02 AM CDT 9:01 PM CDT
Astronomical Twilight 5:27 AM CDT 9:35 PM CDT
Moon 9:51 PM CDT (9/4) 11:14 AM CDT (9/4)
Length of Visible Light 13h 52m
Length of Day
12h 56m
Waning Gibbous, 83% of the Moon is Illuminated
Sep 4
Waning Gibbous
Sep 8
Last Quarter
Sep 15
New
Sep 22
First Quarter
Sep 29
Full

Hourly Weather History & Observations

Time (CDT) Temp. Heat Index Dew Point Humidity Pressure Visibility Wind Dir Wind Speed Gust Speed Precip Events Conditions
12:53 AM 68.0 °F - 66.0 °F 93% 29.86 in 10.0 mi South 6.9 mph - N/A   Clear
1:53 AM 68.0 °F - 66.0 °F 93% 29.86 in 10.0 mi Calm Calm - N/A   Clear
2:53 AM 66.0 °F - 64.0 °F 93% 29.85 in 10.0 mi South 5.8 mph - N/A   Clear
3:53 AM 66.0 °F - 64.0 °F 93% 29.85 in 10.0 mi South 4.6 mph - N/A   Clear
4:53 AM 68.0 °F - 66.0 °F 93% 29.85 in 10.0 mi South 8.1 mph - N/A   Clear
5:53 AM 72.0 °F - 69.1 °F 91% 29.83 in 10.0 mi SSW 15.0 mph - N/A   Clear
6:53 AM 66.9 °F - 64.9 °F 93% 29.86 in 9.0 mi NNW 9.2 mph - N/A   Clear
7:53 AM 66.9 °F - 63.0 °F 87% 29.87 in 9.0 mi Calm Calm - N/A   Clear
8:53 AM 72.0 °F - 64.0 °F 76% 29.87 in 10.0 mi Calm Calm - N/A   Clear
9:53 AM 79.0 °F - 60.1 °F 52% 29.86 in 10.0 mi WSW 5.8 mph - N/A   Clear
10:53 AM 82.9 °F 82.6 °F 57.9 °F 42% 29.85 in 10.0 mi Calm Calm - N/A   Clear
11:53 AM 88.0 °F 86.9 °F 57.9 °F 36% 29.83 in 10.0 mi Variable 3.5 mph - N/A   Clear
12:53 PM 93.0 °F 91.7 °F 57.0 °F 30% 29.81 in 10.0 mi Calm Calm - N/A   Clear
1:53 PM 96.1 °F 95.2 °F 57.9 °F 28% 29.78 in 10.0 mi ESE 8.1 mph - N/A   Clear
2:53 PM 102.2 °F - 48.2 °F 16% 29.81 in 10.0 mi SW 10.4 mph - N/A   Clear
3:53 PM 102.0 °F - 50.0 °F 17% 29.73 in 10.0 mi SW 13.8 mph - N/A   Clear
4:53 PM 102.2 °F - 46.4 °F 15% 29.77 in 10.0 mi SSW 15.0 mph - N/A   Clear
5:53 PM 100.0 °F - 46.9 °F 16% 29.70 in 10.0 mi SSW 13.8 mph - N/A   Clear
6:53 PM 96.1 °F - 44.1 °F 17% 29.69 in 10.0 mi SSW 8.1 mph - N/A   Clear
7:53 PM 89.1 °F - 51.1 °F 27% 29.68 in 10.0 mi South 8.1 mph - N/A   Clear
8:53 PM 87.1 °F - 52.0 °F 30% 29.73 in 10.0 mi South 27.6 mph 33.4 mph N/A   Clear
9:53 PM 78.8 °F - 57.2 °F 47% 29.80 in 10.0 mi South 23.0 mph 29.9 mph N/A   Clear
10:53 PM 78.1 °F - 55.0 °F 45% 29.74 in 10.0 mi South 21.9 mph 31.1 mph N/A   Clear
11:53 PM 77.0 °F - 53.1 °F 43% 29.73 in 10.0 mi South 18.4 mph - N/A   Clear